DW3383 Weather Reports


time (UTC)temp
F
wind
direction
speed
knots
gust
knots
rain 1hr
in
rain 24hr
in
rain mn
in
humidity
%
barometer
mb
20260505100807 51 298 2.6 7.0 0.00 0.00 0.00 62 1006.4
20260505100306 51 338 3.5 7.0 0.00 0.00 0.00 62 1006.4
20260505090807 52 35 2.6 5.2 0.00 0.00 0.00 61 1006.7
20260505090307 52 10 1.7 7.0 0.00 0.00 0.00 60 1006.8
20260505080806 51 355 2.6 7.8 0.00 0.00 0.00 61 1007.4
20260505080306 51 275 2.6 7.8 0.00 0.00 0.00 62 1007.5
20260505070308 52 328 2.6 6.1 0.00 0.00 0.00 62 1008.7
20260505060805 53 324 1.7 6.1 0.00 0.00 0.00 61 1009.1
20260505060306 52 332 1.7 6.1 0.00 0.00 0.00 61 1009.1
20260505050805 54 156 0.9 2.6 0.00 0.00 0.00 59 1009.7
20260505040805 57 13 0.0 1.7 0.00 0.00 0.00 56 1010.1
20260505040306 58 354 0.0 4.3 0.00 0.00 0.00 55 1010.1
20260505030806 60 29 0.0 1.7 0.00 0.00 0.00 53 1010.4
20260505030305 60 23 0.9 5.2 0.00 0.00 0.00 52 1010.3
20260505020807 62 75 0.9 2.6 0.00 0.00 0.00 51 1011.1
20260505010806 63 99 1.7 6.1 0.00 0.00 0.00 50 1011.6
20260505000805 63 81 1.7 4.3 0.00 0.00 0.00 49 1012.6
20260505000305 63 77 2.6 7.8 0.00 0.00 0.00 49 1012.7
20260504230805 64 36 1.7 6.1 0.00 0.00 0.00 49 1013.4
20260504230305 63 67 1.7 7.8 0.00 0.00 0.00 50 1013.4
20260504220806 62 39 1.7 4.3 0.00 0.00 0.00 50 1014.4
20260504220306 61 30 1.7 7.0 0.00 0.00 0.00 52 1014.5
20260504210805 59 316 0.9 4.3 0.00 0.00 0.00 54 1015.4
20260504210306 59 41 1.7 5.2 0.00 0.00 0.00 54 1015.4
20260504200805 57 308 0.9 1.7 0.00 0.00 0.00 55 1015.9
20260504200307 56 15 0.9 6.1 0.00 0.00 0.00 55 1016.0
20260504190308 53 69 0.9 7.0 0.00 0.00 0.00 59 1016.6
20260504180305 50 312 2.6 7.8 0.00 0.00 0.00 63 1017.1
20260504170805 47 292 2.6 5.2 0.00 0.00 0.00 69 1017.8
20260504170307 46 287 1.7 5.2 0.00 0.00 0.00 69 1017.8
20260504160306 42 290 4.3 7.8 0.00 0.00 0.00 77 1018.2
20260504150805 39 280 2.6 5.2 0.00 0.00 0.00 83 1018.3
20260504150306 38 282 2.6 6.1 0.00 0.00 0.00 84 1018.4
20260504140805 30 288 1.7 2.6 0.00 0.00 0.00 96 1018.6
20260504140306 30 285 1.7 4.3 0.00 0.00 0.00 95 1018.5
20260504130806 31 274 1.7 4.3 0.00 0.00 0.00 92 1018.4
20260504130306 32 288 1.7 5.2 0.00 0.00 0.00 91 1018.4
20260504120307 35 81 1.7 5.2 0.00 0.00 0.00 87 1018.6
20260504110306 38 284 3.5 5.2 0.00 0.00 0.00 85 1018.4